Flag for U.S.A. Weather past 2 weeks in Neenah, Wisconsin, U.S.A.

Now
70 °F

Scattered clouds.


Feels Like: 70 °F
Forecast: 62 / 84 °F
Wind: 5 mph from North

Location: Appleton / Outagamie

Current Time: Sep 5, 2015 at 9:19:48 AM

Latest Report: Sep 5, 2015 at 8:45 AM


Visibility: 10 mi

Pressure: 30.08 "Hg

Humidity: 94%

Dew point: 68 °F

Location of NeenahLocation

Historic Weather in Neenah — Graph

°F

Neenah temperature yesterday

Maximum temperature yesterday: 75 °F (at 2:45 PM)
Minimum temperature yesterday: 61 °F (at 2:35 AM)
Average temperature yesterday: 67 °F

Past Weeks' High & Low Weather Summary

 TemperatureHumidityPressure
High86 °F (Sep 1, 2:45 PM)100% (Aug 23, 6:45 AM)30.18 "Hg (Aug 23, 6:45 AM)
Low52 °F (Aug 25, 12:35 AM)37% (Aug 22, 2:45 PM)29.75 "Hg (Aug 23, 6:45 AM)
Average64 °F82%29.99 "Hg
* Reported Aug 21 6:45 AM — Sep 5 6:45 AM, Neenah, Weather by CustomWeather, © 2015

Note: Actual official high and low records may vary slightly from our data, if they occured in-between our weather recording intervals... More about our weather records

Advertising

Neenah weather history for previous 24 hours

 ConditionsComfort  
Time TempWeatherWind HumidityBarometerVisibility
6:45 AM
Sat, Sep 5
66 °FFog.3 mph100%30.06 "Hg5 mi
5:45 AM66 °FFog.3 mph100%30.06 "Hg5 mi
5:15 AM66 °FOvercast.No wind94%30.06 "Hg7 mi
4:55 AM66 °FOvercast.No wind94%30.06 "Hg7 mi
4:35 AM66 °FFog.No wind94%30.06 "Hg5 mi
4:15 AM64 °FFog.No wind100%30.06 "Hg5 mi
3:55 AM66 °FFog.No wind94%30.06 "Hg5 mi
3:15 AM64 °FFog.No wind100%30.05 "Hg4 mi
2:55 AM64 °FFog.No wind100%30.05 "Hg4 mi
2:35 AM64 °FFog.No wind94%30.05 "Hg5 mi
2:15 AM64 °FFog.No wind100%30.05 "Hg5 mi
1:55 AM63 °FFog.No wind100%30.06 "Hg5 mi
1:35 AM64 °FFog.No wind100%30.06 "Hg5 mi
1:15 AM64 °FFog.No wind100%30.05 "Hg5 mi
12:55 AM64 °FPassing clouds.No wind100%30.05 "Hg7 mi
12:35 AM66 °FPartly cloudy.No wind94%30.05 "Hg7 mi
12:15 AM66 °FPassing clouds.No wind94%30.05 "Hg7 mi
11:55 PM
Fri, Sep 4
64 °FFog.No wind100%30.05 "Hg5 mi
11:35 PM64 °FClear.No wind100%30.05 "Hg7 mi
11:15 PM64 °FClear.3 mph100%30.05 "Hg7 mi
10:45 PM66 °FPartly cloudy.5 mph100%30.05 "Hg7 mi
9:45 PM70 °FOvercast.5 mph83%30.05 "Hg7 mi
8:45 PM72 °FOvercast.5 mph78%30.05 "Hg7 mi
7:45 PM73 °FMostly cloudy.5 mph74%30.04 "Hg7 mi
5:45 PM75 °FScattered clouds.3 mph69%30.02 "Hg10 mi
4:45 PM75 °FPartly sunny.3 mph69%30.02 "Hg7 mi
3:45 PM75 °FPartly sunny.5 mph65%30.02 "Hg7 mi
2:45 PM75 °FPartly sunny.3 mph65%30.04 "Hg7 mi
1:45 PM73 °FPartly sunny.3 mph69%30.04 "Hg7 mi
12:45 PM72 °FOvercast.3 mph78%30.04 "Hg7 mi
11:45 AM72 °FOvercast.3 mph78%30.04 "Hg10 mi
10:45 AM70 °FLow clouds.6 mph88%30.05 "Hg10 mi
9:45 AM66 °FLow clouds.6 mph100%30.04 "Hg7 mi
Weather by CustomWeather, © 2015

See weather overviewHow to use our weather pages